Location: Juillat
(46.2020°N, 2.9775°E)
Time: 01:13:05
(UTC+00:00)

Daily predictions for brighter satellites

Satellite Brightness Start Highest point End
(mag) Time Altitude Azimuth Time Altitude Azimuth Time Altitude Azimuth
ATLAS CENTAUR R/B 4.3 00:02:56 10° N 00:04:16 13° NNE 00:05:59 10° ENE
Lacrosse 5 4.1 00:02:31 10° W 00:03:12 11° W 00:03:12 11° W
Cosmos 292 Rocket 4.2 00:03:39 42° WSW 00:04:55 55° WNW 00:09:43 10° NNE
STARLINK-1104 4.0 00:04:53 10° WNW 00:08:12 52° W 00:08:12 52° W
Cosmos 1655 Rocket 4.4 00:07:30 36° SW 00:09:50 55° WNW 00:15:59 10° N
S3M 4.4 00:04:52 10° NNW 00:10:43 48° W 00:12:36 37° SW
GEOS 3 Rocket 3.9 00:07:39 24° ESE 00:10:46 66° NE 00:16:02 10° NW
Cosmos 1726 2.7 00:07:40 10° NNW 00:10:54 48° WNW 00:10:54 48° WNW
Cosmos 2058 Rocket 4.2 00:08:19 10° N 00:12:25 36° ENE 00:13:46 29° ESE
COSMOS 2455 3.2 00:11:39 42° SSE 00:13:06 51° ESE 00:18:55 10° NE
STARLINK-1144 4.2 00:09:53 10° WNW 00:12:59 46° W 00:12:59 46° W
Meteor 1-29 3.9 00:10:45 10° NNE 00:13:32 38° ENE 00:13:32 38° ENE
SL-27 R/B 4.5 00:11:17 10° NW 00:13:10 20° WNW 00:13:10 20° WNW
Cosmos 2263 4.3 00:12:24 40° SW 00:14:25 67° WNW 00:20:01 10° NNE
Cosmos 2228 3.0 00:10:46 10° N 00:15:03 71° E 00:15:32 63° SE
SJ 16-02 4.5 00:14:46 10° NE 00:15:20 10° NE 00:15:54 10° NE
Meteor 2-15 Rocket 4.4 00:12:35 10° N 00:18:48 85° W 00:20:55 44° S
STARLINK-1103 4.4 00:14:52 10° WNW 00:17:46 40° W 00:17:46 40° W
Cosmos 1953 3.2 00:15:51 10° NNW 00:19:26 37° W 00:19:26 37° W
Cosmos 1340 Rocket 3.2 00:17:18 10° NNW 00:21:08 50° W 00:21:08 50° W
Cosmos 1271 Rocket 4.4 00:21:40 22° W 00:22:11 23° WNW 00:25:19 10° NNW
Okean 1-7 Rocket 4.3 00:22:03 39° ESE 00:22:51 43° E 00:27:06 10° NNE
Cosmos 1300 4.1 00:20:45 10° N 00:24:11 31° ENE 00:25:04 27° E
BREEZE M DEB (TANK) 4.4 00:26:49 17° ENE 00:26:49 17° ENE 00:27:46 10° E
Cosmos 1992 Rocket 4.4 00:25:15 39° WSW 00:26:53 56° WNW 00:32:02 10° NNE
COSMOS 2487 2.6 00:24:15 10° NNW 00:27:18 66° NNW 00:27:18 66° NNW
Cosmos 1833 4.3 00:23:02 10° NW 00:28:34 56° WSW 00:29:45 47° SSW
USA 215 4.4 00:33:07 23° WSW 00:33:07 23° WSW 00:37:45 10° WNW
Cosmos 1626 2.7 00:34:31 44° ESE 00:34:40 45° E 00:38:14 10° NNE
Cosmos 1656 Rocket 3.9 00:33:51 38° SW 00:35:58 64° WNW 00:41:33 10° NNE
Cosmos 1606 Rocket 3.5 00:34:07 10° NNW 00:38:24 63° W 00:38:48 59° SW
FALCON 9 R/B 3.5 00:38:25 35° S 00:39:48 37° SSE 00:54:52 10° E
CZ-4 R/B 4.2 00:39:24 10° N 00:44:07 55° WNW 00:45:23 42° WSW
Meteor 2-21 4.4 00:45:34 40° S 00:47:57 89° E 00:54:11 10° N
Cosmos 2297 Rocket 3.9 00:43:02 10° N 00:48:00 30° NE 00:52:57 10° ESE
SL-4 R/B 2.3 00:49:12 55° SSW 00:50:01 66° SSE 00:54:45 10° ENE
NOSS 3-2 (C) 4.4 00:44:02 10° NW 00:51:17 46° WSW 00:54:30 33° SSW
Cosmos 1437 3.8 00:52:48 35° E 00:52:48 35° E 00:55:18 10° NNE
PSLV R/B 4.2 00:48:19 10° N 00:52:46 49° WNW 00:53:53 40° WSW
Cosmos 1674 3.6 00:53:21 35° W 00:53:32 35° WNW 00:57:02 10° N
ATLAS CENTAUR R/B 1.3 00:56:56 58° SW 00:57:45 90° SE 01:01:57 10° NE
SL-19 R/B 4.2 00:52:30 10° NNE 00:57:55 85° ESE 01:00:03 40° SSW
Cosmos 1777 Rocket 3.9 00:54:40 10° NNW 00:59:55 80° WSW 01:01:54 39° S
Timation 2 Rocket 4.0 00:53:46 10° NNW 01:00:11 84° ENE 01:04:30 21° SSE
NOSS 3-4 (A) 3.7 00:57:31 29° WSW 01:00:40 65° NW 01:07:02 10° NE
SL-16 R/B 3.0 00:56:01 17° SE 01:00:41 60° ENE 01:06:45 10° N
NOSS 3-4 (C) 3.6 00:57:37 29° WSW 01:00:46 66° NW 01:07:09 10° NE
BREEZE-M R/B 3.6 01:01:07 40° SSE 01:01:07 40° SSE 01:04:15 10° E
Spot 1 4.2 01:00:54 48° S 01:02:08 75° WSW 01:07:00 10° NNW
STARLINK-29 4.0 01:04:34 35° E 01:04:34 35° E 01:06:48 10° ENE
Cosmos 1455 4.5 01:03:40 10° NNE 01:06:30 20° ENE 01:09:19 10° ESE
ATLAS 3B R/B 2.6 01:00:31 10° NW 01:07:18 73° SW 01:12:43 18° SSE
CENTAUR R/B 3.6 01:03:29 10° NW 01:11:04 42° WSW 01:14:47 29° SSW
BREEZE-M DEB (TANK) 1.6 01:12:38 63° NE 01:12:38 63° NE 01:14:36 10° ENE
Meteor 2-21 Rocket 4.4 01:11:40 35° SSW 01:14:23 75° W 01:20:35 10° N
Cosmos 1867 4.0 01:10:31 10° NW 01:15:38 42° WSW 01:16:44 38° SSW
Cosmos 1745 Rocket 4.0 01:12:45 31° S 01:15:52 77° E 01:22:01 10° N
Cosmos 1892 Rocket 4.2 01:14:51 37° WSW 01:15:53 43° WNW 01:20:07 10° N
RESURS DK-1 2.3 01:19:17 52° SSW 01:20:16 89° SE 01:24:26 10° NNE
Cosmos 2227 Rocket 3.2 01:18:21 10° NNW 01:23:50 46° ENE 01:29:16 10° SE
Meteor 1-24 Rocket 3.9 01:22:03 34° SW 01:24:07 56° WNW 01:29:26 10° N
Cosmos 1356 Rocket 3.3 01:20:10 10° N 01:24:19 88° ENE 01:25:49 39° SSE
Cosmos 2369 Rocket 4.3 01:21:45 10° W 01:25:38 18° NW 01:29:32 10° N
CZ-2D R/B 2.2 01:22:23 10° NNE 01:27:39 68° ESE 01:30:15 30° S
Helios 1B rocket 4.3 01:24:47 10° NNW 01:27:48 20° WNW 01:29:11 17° W
ATLAS 2AS CENTAUR R/B 3.6 01:23:17 16° WSW 01:29:39 52° NW 01:37:21 10° NE
ADEOS II 3.6 01:25:37 10° NE 01:30:11 29° E 01:34:07 13° SSE
IKONOS-2 4.5 01:29:56 32° SSE 01:31:52 89° ENE 01:36:10 10° NNW
CZ-4C R/B 3.4 01:30:46 41° S 01:32:08 70° WSW 01:36:29 10° NNW
STARLINK-1228 2.8 01:31:40 10° WNW 01:35:01 76° SSW 01:38:21 10° SE
STARLINK-1234 2.7 01:33:06 10° WNW 01:36:13 77° SSW 01:37:02 45° SE
Resurs 1-4 Rocket 2.1 01:32:06 10° NNE 01:37:26 84° ESE 01:40:11 30° S
STARLINK-1212 2.8 01:34:28 10° WNW 01:37:34 82° NNE 01:40:41 10° ESE
STARLINK-1105 2.8 01:34:56 10° WNW 01:38:03 83° NE 01:41:08 10° ESE
STARLINK-1232 4.5 01:34:06 10° NW 01:38:10 51° NNE 01:42:14 10° E
STARLINK-1209 2.7 01:35:21 10° WNW 01:38:30 70° SW 01:38:42 67° S
STARLINK-1247 2.8 01:35:50 10° WNW 01:38:58 84° NNE 01:42:06 10° ESE
USA 81 4.2 01:36:19 25° S 01:39:23 71° E 01:44:40 10° N
STARLINK-1227 2.8 01:36:18 10° WNW 01:39:25 85° NNE 01:42:30 10° ESE
STARLINK-52 2.8 01:39:41 64° SW 01:40:06 84° SSE 01:43:20 10° ENE
STARLINK-1226 2.8 01:37:09 10° WNW 01:40:17 86° NE 01:43:24 10° ESE
STARLINK-1215 2.8 01:38:06 10° WNW 01:41:14 88° NNE 01:44:21 10° ESE
Cosmos 1758 Rocket 4.4 01:39:23 21° SSE 01:41:52 44° E 01:46:02 10° NNE
ARIANE 5 R/B 4.4 01:38:14 10° NE 01:42:13 23° E 01:46:08 10° SE
STARLINK-1217 2.7 01:39:52 10° WNW 01:43:00 90° SSE 01:46:06 10° ESE
STARLINK-1208 4.4 01:39:04 10° NW 01:43:08 54° NNE 01:47:13 10° ESE
STARLINK-1229 2.7 01:40:47 10° WNW 01:43:55 88° SSW 01:47:02 10° ESE
STARLINK-1270 2.7 01:41:39 10° WNW 01:44:47 87° SW 01:47:54 10° ESE
NPP 3.6 01:39:26 10° NNE 01:44:52 83° ESE 01:47:57 27° S
STARLINK-1189 2.7 01:43:29 10° WNW 01:46:37 84° SSW 01:49:44 10° SE
STARLINK-1188 2.7 01:44:22 10° WNW 01:47:30 83° SSW 01:50:38 10° SE
STARLINK-1235 2.7 01:45:05 10° WNW 01:48:09 64° SW 01:51:13 10° SE
STARLINK-1271 4.3 01:44:03 10° NW 01:48:10 57° NNE 01:52:15 10° ESE
STARLINK-1187 2.7 01:45:29 10° WNW 01:48:34 72° SW 01:51:40 10° SE
Cosmos 1898 Rocket 4.1 01:43:54 10° NNW 01:49:12 59° ENE 01:54:26 10° SE
Starlink 7 placeholder 4.1 01:49:43 20° NNW 01:49:47 21° NNW 01:51:23 10° NE
STARLINK-1191 2.6 01:46:52 10° WNW 01:49:57 79° SSW 01:53:03 10° SE
Cosmos 2058 Rocket 4.5 01:46:44 10° NW 01:50:12 23° W 01:51:01 22° WSW
Meteor 1-21 Rocket 4.3 01:46:49 24° S 01:50:17 76° E 01:55:58 10° NNE
Lacrosse 4 Rocket 4.0 01:46:59 10° N 01:50:32 23° NE 01:54:01 10° E
STARLINK-1221 2.7 01:47:43 10° WNW 01:50:49 78° SW 01:53:56 10° SE
STARLINK-1222 2.6 01:48:37 10° WNW 01:51:43 77° SW 01:54:48 10° SE
Cosmos 1656 4.0 01:48:20 24° S 01:51:44 59° ESE 01:57:16 10° NNE
STARLINK-1214 2.6 01:49:32 10° WNW 01:52:38 75° SSW 01:55:43 10° SE
STARLINK-1154 4.2 01:49:02 10° NW 01:53:09 60° NNE 01:57:16 10° ESE
CZ-4C R/B 3.4 01:50:43 17° SSE 01:53:42 29° ESE 01:58:32 10° NE
Cosmos 2084 3.5 01:52:18 32° SW 01:54:20 87° NW 01:58:50 10° NE
SJ 16-02 1.6 01:50:20 10° NNW 01:54:47 72° ENE 01:59:12 10° SSE
Cosmos 468 Rocket 4.4 01:52:22 22° S 01:55:29 56° ESE 02:00:31 10° NNE
STARLINK-1197 4.1 01:54:01 10° WNW 01:58:08 64° NNE 02:02:15 10° ESE
COSMOS 2455 4.0 01:54:47 15° WSW 01:59:15 35° NW 02:04:46 10° NNE
Cosmos 1937 Rocket 4.3 01:54:20 10° NNW 01:59:27 52° ENE 02:04:35 10° SE
Cosmos 1300 4.3 01:56:49 10° NW 01:59:38 20° W 02:00:00 20° W
Meteor 2-10 Rocket 3.5 01:56:29 10° NNW 02:01:52 84° W 02:06:01 16° S
Cosmos 921 Rocket 4.0 02:00:21 23° WSW 02:02:13 34° WNW 02:06:11 10° N
STARLINK-1198 3.9 01:58:57 10° WNW 02:03:06 68° NNE 02:07:14 10° ESE
Cosmos 1709 Rocket 3.9 02:01:48 21° SSW 02:05:59 81° W 02:12:10 10° N
STARLINK-1199 3.8 02:03:58 10° WNW 02:08:07 72° NNE 02:12:16 10° ESE
Cosmos 1626 Rocket 4.4 02:06:42 24° WSW 02:08:31 35° WNW 02:12:30 10° N
Cosmos 1626 4.3 02:09:03 13° W 02:10:12 14° WNW 02:12:13 10° NW
STARLINK-60 4.4 02:08:52 13° W 02:11:18 33° NNW 02:14:17 10° NE
STARLINK-1210 3.7 02:08:56 10° WNW 02:13:06 77° NNE 02:17:14 10° ESE
STARLINK-1320 3.0 02:14:52 35° SSW 02:15:55 58° SE 02:19:00 10° ENE
STARLINK-1322 3.0 02:15:11 34° SSW 02:16:16 59° SE 02:19:21 10° ENE
STARLINK-1324 3.0 02:15:32 34° SSW 02:16:37 59° SE 02:19:42 10° ENE
Cosmos 2219 3.3 02:11:15 10° NW 02:16:46 53° WSW 02:22:12 10° S
STARLINK-1294 3.0 02:15:47 34° SSW 02:16:54 60° SE 02:20:00 10° ENE
STARLINK-1261 3.0 02:16:09 34° SSW 02:17:16 60° SE 02:20:21 10° ENE
STARLINK-1325 3.0 02:16:30 34° SSW 02:17:38 61° SE 02:20:43 10° ENE
STARLINK-1333 3.0 02:16:48 33° SSW 02:17:56 61° SE 02:21:01 10° ENE
STARLINK-1219 3.7 02:13:54 10° WNW 02:18:05 82° NNE 02:22:13 10° ESE
STARLINK-1334 3.0 02:17:07 33° SSW 02:18:16 61° SE 02:21:22 10° ENE
STARLINK-1326 2.9 02:17:28 33° SSW 02:18:37 62° SE 02:21:43 10° ENE
STARLINK-1323 2.9 02:17:47 33° SW 02:18:57 62° SE 02:22:03 10° ENE
Cosmos 1980 Rocket 3.7 02:14:20 10° SSE 02:19:06 30° ESE 02:23:54 10° NE
STARLINK-1338 3.3 02:17:39 29° SSW 02:19:11 58° SE 02:22:36 10° ENE
STARLINK-1349 2.9 02:18:06 33° SW 02:19:17 63° SSE 02:22:22 10° ENE
STARLINK-1336 2.9 02:18:28 32° SW 02:19:40 63° SE 02:22:45 10° ENE
STARLINK-1331 2.9 02:18:45 32° SW 02:19:58 64° SE 02:23:04 10° ENE
STARLINK-1344 2.9 02:19:05 32° SW 02:20:18 64° SE 02:23:25 10° ENE
STARLINK-1343 2.9 02:19:25 32° SW 02:20:39 65° SE 02:23:45 10° ENE
STARLINK-1346 2.9 02:19:43 31° SW 02:21:00 65° SE 02:24:08 10° ENE
STARLINK-1328 2.9 02:20:05 31° SW 02:21:20 66° SSE 02:24:26 10° ENE
STARLINK-1354 2.9 02:20:22 31° SW 02:21:39 66° SE 02:24:45 10° ENE
Cosmos 1328 3.8 02:19:19 20° S 02:22:00 86° E 02:26:00 10° N
STARLINK-1347 2.9 02:20:44 31° SW 02:22:00 66° SE 02:25:07 10° ENE
STARLINK-1357 2.9 02:21:01 31° SW 02:22:20 67° SE 02:25:26 10° ENE
STARLINK-1335 2.9 02:21:22 31° SW 02:22:40 67° SE 02:25:47 10° ENE
CRYOSAT 2 4.5 02:17:54 10° N 02:22:51 79° E 02:27:16 13° S
STARLINK-1327 2.9 02:21:41 30° SW 02:23:00 68° SE 02:26:06 10° ENE
STARLINK-1211 3.6 02:18:52 10° WNW 02:23:02 87° NNE 02:27:11 10° ESE
STARLINK-1371 3.3 02:21:31 27° SW 02:23:12 63° SE 02:26:40 10° ENE
STARLINK-1340 2.9 02:22:01 30° SW 02:23:21 68° SSE 02:26:28 10° ENE
STARLINK-1356 2.9 02:22:21 30° SW 02:23:41 69° SE 02:26:48 10° ENE
STARLINK-1345 2.8 02:22:41 30° SW 02:24:02 69° SSE 02:27:08 10° ENE
STARLINK-1355 2.8 02:22:59 30° SW 02:24:22 70° SSE 02:27:28 10° ENE
ERS-2 3.1 02:20:59 10° SE 02:24:31 49° ENE 02:28:05 10° N
STARLINK-1321 2.8 02:23:18 29° SW 02:24:41 70° SSE 02:27:48 10° ENE
STARLINK-1358 2.8 02:23:39 29° SW 02:25:03 71° SE 02:28:10 10° ENE
STARLINK-1341 3.2 02:23:29 26° SW 02:25:15 66° SE 02:28:44 10° ENE
STARLINK-1332 2.8 02:23:57 29° SW 02:25:22 71° SSE 02:28:29 10° ENE
STARLINK-1348 2.8 02:24:18 29° SW 02:25:43 72° SSE 02:28:51 10° ENE
STARLINK-1330 2.8 02:24:36 29° SW 02:26:02 72° SSE 02:29:09 10° ENE
STARLINK-1363 2.8 02:24:56 28° SW 02:26:22 73° SE 02:29:29 10° ENE
STARLINK-1337 2.8 02:25:15 28° SW 02:26:43 73° SSE 02:29:50 10° ENE
STARLINK-1342 2.8 02:25:35 28° SW 02:27:03 74° SSE 02:30:10 10° ENE
STARLINK-1374 3.2 02:25:26 25° SW 02:27:17 68° SE 02:30:47 10° ENE
STARLINK-1364 2.8 02:25:55 28° SW 02:27:24 74° SSE 02:30:31 10° ENE
STARLINK-1376 2.8 02:26:15 28° SW 02:27:45 75° SSE 02:30:52 10° ENE
STARLINK-1360 2.8 02:26:30 27° SW 02:28:01 75° SSE 02:31:08 10° ENE
STARLINK-1245 3.5 02:23:52 10° WNW 02:28:02 87° SW 02:32:11 10° ESE
STARLINK-1361 2.8 02:26:56 27° SW 02:28:27 76° SSE 02:31:35 10° ENE
IRS-1C 4.2 02:23:14 10° NNE 02:28:37 77° ESE 02:33:25 13° S
STARLINK-1367 2.8 02:27:10 27° SW 02:28:43 76° SSE 02:31:53 10° ENE
AQUA 4.3 02:24:26 10° N 02:29:00 47° WNW 02:32:11 19° SW
STARLINK-1366 2.8 02:27:33 27° SW 02:29:06 77° SE 02:32:13 10° ENE
STARLINK-1339 3.2 02:27:27 24° SW 02:29:22 71° SE 02:32:52 10° ENE
SL-4 R/B 3.1 02:25:14 10° W 02:29:57 51° NNW 02:34:29 10° ENE
STARLINK-1377 3.1 02:29:28 23° SW 02:31:28 73° SSE 02:34:58 10° ENE
CZ-4B R/B 4.1 02:26:37 10° N 02:31:30 46° WNW 02:35:12 17° SW
Cosmos 2297 Rocket 2.4 02:26:50 10° NW 02:32:17 50° WSW 02:37:42 10° S
STARLINK-1233 3.5 02:28:51 10° WNW 02:33:00 82° SSW 02:37:08 10° SE
STARLINK-1353 3.1 02:31:17 23° SW 02:33:19 76° SSE 02:36:48 10° ENE
STARLINK-1375 3.1 02:33:04 22° SW 02:35:11 78° SSE 02:38:41 10° ENE
Cosmos 2082 3.7 02:30:23 10° NNW 02:36:05 88° WSW 02:41:43 10° SSE
ATLAS CENTAUR R/B 3.7 02:34:21 10° WNW 02:37:10 17° NW 02:39:54 10° N
Cosmos 540 Rocket 4.0 02:32:22 11° S 02:37:11 55° ESE 02:42:12 10° NNE
STARLINK-1350 3.1 02:35:22 21° SW 02:37:34 82° SSE 02:41:04 10° ENE
STARLINK-1204 3.5 02:33:50 10° WNW 02:37:59 76° SW 02:42:07 10° SE
FALCON 9 DEB 3.7 02:35:24 15° W 02:38:06 53° NNW 02:41:31 10° NE
Cosmos 990 Rocket 4.1 02:33:00 10° NNW 02:38:08 54° WSW 02:43:13 10° S
CBERS-1 4.3 02:33:24 10° N 02:38:24 57° WNW 02:42:29 16° SW
STARLINK-29 4.3 02:36:59 10° W 02:39:56 35° NNW 02:42:55 10° NE
STARLINK-1352 3.1 02:37:39 20° SW 02:39:59 85° SSE 02:43:32 10° ENE
OE (NEXTSAT) 4.3 02:36:54 12° W 02:40:06 88° S 02:43:36 10° E
Cosmos 1825 Rocket 3.8 02:38:22 18° SSW 02:41:25 51° WNW 02:45:39 10° N
Cosmos 2278 4.3 02:36:09 10° S 02:41:33 53° ESE 02:47:04 10° NE
STARLINK-1368 3.1 02:39:45 19° WSW 02:42:10 88° SSE 02:45:43 10° ENE
Cosmos 1455 3.1 02:38:52 10° NNW 02:42:10 30° W 02:44:16 17° SW
CZ-2D R/B 4.2 02:38:54 10° NNE 02:42:55 51° E 02:47:01 10° S
STARLINK-1238 3.5 02:38:48 10° WNW 02:42:56 71° SW 02:47:03 10° SE
Meteor 1-11 4.3 02:38:16 10° S 02:43:54 82° E 02:49:31 10° NNE
STARLINK-1369 3.1 02:41:37 18° WSW 02:44:05 89° NNW 02:47:36 10° ENE
Meteor 1-28 Rocket 3.3 02:40:32 10° SSE 02:44:19 80° ENE 02:48:06 10° N
SL-16 R/B 3.6 02:41:06 15° SW 02:44:41 25° W 02:49:40 10° NW
USA 234 4.3 02:38:58 10° ENE 02:44:51 34° SE 02:50:41 10° SSW
ATLAS CENTAUR R/B 2.7 02:43:11 10° WNW 02:46:24 42° SW 02:53:39 10° SSE
STARLINK-1372 3.2 02:43:57 17° WSW 02:46:34 86° NNW 02:50:06 10° ENE
Cosmos 2074 Rocket 4.1 02:41:01 10° S 02:47:19 85° E 02:53:39 10° N
Cosmos 2263 Rocket 4.2 02:42:47 10° NNW 02:47:50 32° NE 02:52:50 10° ESE
STARLINK-1201 3.5 02:43:48 10° WNW 02:47:56 65° SW 02:52:01 10° SE
STARLINK-1378 3.2 02:46:05 16° WSW 02:48:47 83° NNW 02:52:20 10° ENE
STARLINK-1329 3.2 02:46:35 16° WSW 02:49:18 83° NNW 02:52:52 10° ENE
Cosmos 841 Rocket 3.6 02:44:27 11° SSW 02:49:27 76° ESE 02:54:42 10° NNE
Cosmos 372 Rocket 4.5 02:44:43 10° NNW 02:49:49 63° ENE 02:54:54 10° SSE
STARLINK-1365 3.2 02:47:16 16° WSW 02:50:02 79° NNW 02:53:35 10° ENE
GP-B 4.0 02:46:24 10° NNW 02:50:22 33° W 02:53:36 14° SW
STARLINK-1379 3.2 02:48:13 15° WSW 02:51:00 81° NNW 02:54:33 10° ENE
IRS-1D 4.1 02:46:10 10° N 02:51:17 46° WNW 02:55:45 13° SW
STARLINK-1362 3.2 02:48:47 15° WSW 02:51:35 80° NNW 02:55:09 10° ENE
STARLINK-1206 3.6 02:48:48 10° WNW 02:52:53 60° SW 02:56:58 10° SE
Cosmos-2242 3.7 02:49:51 10° NNW 02:53:45 35° W 02:57:20 12° SSW
STARLINK-1373 3.3 02:50:59 14° WSW 02:53:54 77° NNW 02:57:28 10° ENE
COBE Rocket 3.9 02:49:25 10° S 02:54:20 80° WSW 02:59:26 10° NNW
Cosmos 1400 Rocket 2.8 02:50:54 10° NNW 02:55:02 78° W 02:59:09 10° S
Cosmos 2221 3.4 02:51:34 10° N 02:55:48 51° ENE 03:00:02 10° SSE
STARLINK-1390 3.3 02:52:59 14° WSW 02:55:57 75° NNW 02:59:30 10° ENE
NOSS 7 (E) 4.3 02:53:04 15° SW 02:55:58 85° NW 02:59:05 10° NE
ATLAS 3B R/B 4.2 02:53:21 10° WNW 02:56:55 15° WSW 02:59:50 12° SW
STARLINK-1205 3.7 02:53:47 10° WNW 02:57:51 56° SW 03:01:54 10° SE
Cosmos 2184 Rocket 4.0 02:52:38 10° S 02:58:50 83° W 03:05:03 10° N
SL-08 R/B 3.6 02:55:20 10° S 02:59:54 48° W 03:04:25 10° NNW
CZ-4C R/B 3.2 02:56:42 10° SSE 03:00:16 77° ENE 03:03:55 10° N
STARLINK-1218 3.7 02:58:46 10° WNW 03:02:48 51° SW 03:06:49 10° SE
STARLINK-1202 4.4 03:01:02 10° NW 03:05:07 56° NNE 03:09:13 10° ESE
Cosmos 1703 4.4 03:02:09 13° SW 03:05:08 28° WNW 03:08:36 10° NNW
CZ-2D R/B 3.8 03:03:30 10° NNW 03:07:11 20° WNW 03:10:49 10° WSW
Cosmos 2227 Rocket 3.0 03:02:47 10° NW 03:07:41 31° WSW 03:12:33 10° SSW
STARLINK-1254 3.8 03:03:47 10° WNW 03:07:46 47° SW 03:11:45 10° SE
Cosmos 1763 Rocket 4.1 03:03:46 11° SW 03:08:21 42° WNW 03:13:12 10° N
ADEOS II 2.7 03:05:04 10° N 03:09:59 41° WNW 03:14:52 10° SW
Cosmos 1697 Rocket 2.9 03:04:56 11° SW 03:10:25 64° WNW 03:16:05 10° NNE
Cosmos 2150 Rocket 4.3 03:06:39 10° NNW 03:11:52 74° ENE 03:17:00 10° SSE
STARLINK-1231 3.9 03:08:48 10° WNW 03:12:45 43° SW 03:16:40 10° SSE
Cosmos 1315 Rocket 3.3 03:11:09 10° N 03:15:04 63° ENE 03:18:57 10° SSE
STARLINK-1246 4.2 03:10:58 10° WNW 03:15:06 63° NNE 03:19:13 10° ESE
SL-16 R/B 4.1 03:11:57 10° SSE 03:16:32 26° ESE 03:21:09 10° NE
Resurs 1-4 Rocket 4.0 03:13:23 10° NNW 03:16:34 16° WNW 03:19:46 10° W
CZ-2C R/B 2.8 03:13:10 10° NNE 03:16:53 78° ESE 03:20:36 10° S
STARLINK-1232 4.0 03:13:49 10° WNW 03:17:42 40° SW 03:21:35 10° SSE
MSX 4.4 03:12:09 10° NNE 03:17:51 59° E 03:23:30 10° S
STARLINK-1224 4.1 03:15:57 10° WNW 03:20:05 67° NNE 03:24:13 10° ESE
SAR-Lupe-4 4.3 03:16:54 10° SSE 03:20:25 59° ENE 03:23:59 10° N
H-2A R/B 2.3 03:16:31 10° S 03:20:43 53° W 03:25:04 10° NNW
ARIANE 5 R/B 2.9 03:16:42 10° N 03:21:35 49° WNW 03:26:24 10° SW
STARLINK-1208 4.1 03:18:48 10° WNW 03:22:38 37° SW 03:26:27 10° SSE
BREEZE-M R/B 3.0 03:20:13 10° W 03:23:34 44° NNW 03:25:58 10° ENE
STARLINK-1225 4.0 03:20:56 10° WNW 03:25:05 71° NNE 03:29:13 10° ESE
Spot 4 Rocket 4.2 03:22:27 10° N 03:27:32 60° WNW 03:32:33 10° SSW
STARLINK-1271 4.3 03:23:51 10° WNW 03:27:36 34° SW 03:31:21 10° SSE
SL-24 DEB 4.3 03:23:22 10° N 03:28:03 87° W 03:32:38 10° S
BREEZE-M DEB (TANK) 2.3 03:26:24 10° W 03:28:12 23° SSW 03:30:16 10° SSE
Lacrosse 4 Rocket 1.7 03:25:18 10° NW 03:29:29 47° WSW 03:33:31 10° S
STARLINK-1230 3.9 03:25:54 10° WNW 03:30:04 75° NNE 03:34:12 10° ESE
Meteor 1-27 4.5 03:25:01 10° NNW 03:30:23 50° W 03:35:43 10° SSW
Cosmos 2154 Rocket 4.1 03:24:33 10° SSW 03:30:51 75° W 03:37:08 10° N
